When you browse on this site, cookies collect data to enhance your experience and personalize the content and advertising you see.
Visit our Privacy Policy to learn more. By continuing to use the site, you agree to this use of cookies and data.
  • In Hungary
  • List of Countries
  • For 7 days
  • Water Temperature
  • Satellite Maps
  • Weather Map
  • News
  • Weather Widgets
  • user-avatar
    Login

    Hourly Weather Avrig

    Today, 19 March, Tuesday

    Time Temperature Precipitation Wind Pressure Humidity
    00:00 +11°C° 0 mm 1 mps 722 mmHg 70%
    01:00 +11°C° 0 mm 1 mps 722 mmHg 74%
    02:00 +11°C° 0 mm 1 mps 723 mmHg 76%
    03:00 +10°C° 0.1 mm 1 mps 723 mmHg 80%
    04:00 +10°C° 0.1 mm 1 mps 723 mmHg 84%
    05:00 +9°C° 0.1 mm 1 mps 723 mmHg 88%
    06:00 +9°C° 0 mm 1 mps 724 mmHg 88%
    07:00 +9°C° 0 mm 1 mps 724 mmHg 88%
    08:00 +9°C° 0 mm 1 mps 725 mmHg 89%
    09:00 +10°C° 0 mm 1 mps 725 mmHg 85%
    10:00 +11°C° 0 mm 1 mps 725 mmHg 81%
    11:00 +12°C° 0 mm 2 mps 726 mmHg 77%
    12:00 +12°C° 0.3 mm 2 mps 726 mmHg 79%
    13:00 +12°C° 0.3 mm 2 mps 726 mmHg 80%
    14:00 +12°C° 0 mm 2 mps 726 mmHg 80%
    15:00 +12°C° 0.2 mm 2 mps 726 mmHg 81%
    16:00 +10°C° 0.2 mm 2 mps 726 mmHg 83%
    17:00 +10°C° 0.2 mm 2 mps 726 mmHg 84%
    18:00 +10°C° 0.2 mm 1 mps 726 mmHg 86%
    19:00 +9°C° 0.2 mm 1 mps 727 mmHg 88%
    20:00 +9°C° 0.2 mm 1 mps 727 mmHg 91%
    21:00 +9°C° 0.2 mm 1 mps 727 mmHg 90%
    22:00 +8°C° 0.2 mm 1 mps 728 mmHg 90%
    23:00 +7°C° 0.2 mm 0 mps 728 mmHg 90%

    Tomorrow, 20 March, Wednesday

    Time Temperature Precipitation Wind Pressure Humidity
    00:00 +7°C° 0 mm 0 mps 728 mmHg 91%
    01:00 +7°C° 0 mm 0 mps 728 mmHg 91%
    02:00 +6°C° 0 mm 0 mps 728 mmHg 91%
    03:00 +6°C° 0 mm 0 mps 729 mmHg 91%
    04:00 +6°C° 0 mm 0 mps 729 mmHg 91%
    05:00 +6°C° 0 mm 0 mps 729 mmHg 91%
    06:00 +7°C° 0.1 mm 1 mps 729 mmHg 88%
    07:00 +7°C° 0.1 mm 1 mps 730 mmHg 86%
    08:00 +8°C° 0.1 mm 1 mps 730 mmHg 83%
    09:00 +9°C° 0.2 mm 1 mps 731 mmHg 80%
    10:00 +10°C° 0.2 mm 1 mps 731 mmHg 77%
    11:00 +11°C° 0.2 mm 1 mps 731 mmHg 74%
    12:00 +11°C° 0.6 mm 1 mps 731 mmHg 74%
    13:00 +11°C° 0.6 mm 1 mps 732 mmHg 75%
    14:00 +11°C° 0.6 mm 1 mps 732 mmHg 75%
    15:00 +11°C° 0.6 mm 1 mps 732 mmHg 76%
    16:00 +10°C° 0.6 mm 1 mps 732 mmHg 77%
    17:00 +10°C° 0.6 mm 1 mps 732 mmHg 77%
    18:00 +10°C° 0.4 mm 1 mps 732 mmHg 80%
    19:00 +9°C° 0.4 mm 1 mps 733 mmHg 82%
    20:00 +7°C° 0.4 mm 0 mps 733 mmHg 85%
    21:00 +7°C° 0.3 mm 0 mps 733 mmHg 85%
    22:00 +7°C° 0.3 mm 0 mps 734 mmHg 85%
    23:00 +6°C° 0.3 mm 0 mps 734 mmHg 86%

    Day after tomorrow, 21 March, Thursday

    Time Temperature Precipitation Wind Pressure Humidity
    00:00 +6°C° 0.4 mm 0 mps 734 mmHg 86%
    01:00 +6°C° 0.4 mm 0 mps 734 mmHg 87%
    02:00 +6°C° 0.4 mm 0 mps 735 mmHg 87%
    03:00 +6°C° 0.2 mm 0 mps 735 mmHg 88%
    04:00 +6°C° 0.2 mm 0 mps 735 mmHg 88%
    05:00 +5°C° 0.2 mm 0 mps 735 mmHg 88%
    06:00 +6°C° 0.1 mm 0 mps 735 mmHg 86%
    07:00 +7°C° 0.1 mm 0 mps 735 mmHg 83%
    08:00 +7°C° 0.1 mm 0 mps 736 mmHg 80%
    09:00 +9°C° 0 mm 0 mps 736 mmHg 75%
    10:00 +10°C° 0 mm 0 mps 736 mmHg 69%
    11:00 +12°C° 0 mm 1 mps 736 mmHg 64%
    12:00 +13°C° 0 mm 1 mps 736 mmHg 62%
    13:00 +13°C° 0 mm 1 mps 736 mmHg 60%
    14:00 +13°C° 0 mm 1 mps 736 mmHg 59%
    15:00 +13°C° 0 mm 2 mps 735 mmHg 60%
    16:00 +13°C° 0 mm 2 mps 735 mmHg 61%
    17:00 +12°C° 0 mm 2 mps 735 mmHg 62%
    18:00 +11°C° 0 mm 1 mps 735 mmHg 67%
    19:00 +10°C° 0 mm 1 mps 735 mmHg 72%
    20:00 +8°C° 0 mm 0 mps 735 mmHg 76%
    21:00 +8°C° 0 mm 1 mps 735 mmHg 77%
    22:00 +8°C° 0 mm 1 mps 735 mmHg 77%
    23:00 +7°C° 0 mm 1 mps 736 mmHg 78%

    22 March, Friday

    Time Temperature Precipitation Wind Pressure Humidity
    00:00 +7°C° 0 mm 1 mps 736 mmHg 77%
    01:00 +7°C° 0 mm 1 mps 736 mmHg 76%
    02:00 +6°C° 0 mm 1 mps 736 mmHg 75%
    03:00 +6°C° 0 mm 1 mps 736 mmHg 75%
    04:00 +6°C° 0 mm 1 mps 735 mmHg 74%
    05:00 +6°C° 0 mm 1 mps 735 mmHg 74%
    06:00 +7°C° 0 mm 1 mps 735 mmHg 71%
    07:00 +8°C° 0 mm 1 mps 735 mmHg 69%
    08:00 +8°C° 0 mm 1 mps 736 mmHg 67%
    09:00 +10°C° 0 mm 1 mps 736 mmHg 63%
    10:00 +12°C° 0 mm 1 mps 735 mmHg 58%
    11:00 +13°C° 0 mm 1 mps 735 mmHg 53%
    12:00 +14°C° 0 mm 1 mps 735 mmHg 51%
    13:00 +15°C° 0 mm 1 mps 735 mmHg 48%
    14:00 +15°C° 0 mm 1 mps 734 mmHg 46%
    15:00 +15°C° 0 mm 1 mps 734 mmHg 47%
    16:00 +15°C° 0 mm 2 mps 733 mmHg 48%
    17:00 +14°C° 0 mm 2 mps 733 mmHg 49%
    18:00 +13°C° 0 mm 1 mps 733 mmHg 53%
    19:00 +11°C° 0 mm 1 mps 733 mmHg 57%
    20:00 +10°C° 0 mm 1 mps 733 mmHg 61%
    21:00 +9°C° 0 mm 1 mps 733 mmHg 60%
    22:00 +9°C° 0 mm 1 mps 733 mmHg 60%
    23:00 +8°C° 0 mm 1 mps 733 mmHg 59%

    23 March, Saturday

    Time Temperature Precipitation Wind Pressure Humidity
    00:00 +8°C° 0 mm 1 mps 733 mmHg 59%
    01:00 +8°C° 0 mm 1 mps 733 mmHg 59%
    02:00 +7°C° 0 mm 1 mps 733 mmHg 59%
    03:00 +7°C° 0 mm 1 mps 733 mmHg 60%
    04:00 +7°C° 0 mm 1 mps 732 mmHg 61%
    05:00 +7°C° 0 mm 1 mps 732 mmHg 62%
    06:00 +8°C° 0 mm 1 mps 732 mmHg 61%
    07:00 +9°C° 0 mm 1 mps 733 mmHg 61%
    08:00 +10°C° 0 mm 1 mps 733 mmHg 60%
    09:00 +12°C° 0 mm 1 mps 733 mmHg 56%
    10:00 +13°C° 0 mm 1 mps 733 mmHg 52%
    11:00 +15°C° 0 mm 1 mps 733 mmHg 48%
    12:00 +16°C° 0 mm 1 mps 733 mmHg 46%
    13:00 +16°C° 0 mm 1 mps 732 mmHg 44%
    14:00 +18°C° 0 mm 1 mps 732 mmHg 42%
    15:00 +18°C° 0 mm 1 mps 732 mmHg 44%
    16:00 +16°C° 0 mm 1 mps 732 mmHg 46%
    17:00 +16°C° 0 mm 1 mps 731 mmHg 47%
    18:00 +14°C° 0 mm 1 mps 731 mmHg 53%
    19:00 +13°C° 0 mm 1 mps 732 mmHg 58%
    20:00 +11°C° 0 mm 1 mps 732 mmHg 63%
    21:00 +11°C° 0 mm 1 mps 732 mmHg 66%
    22:00 +9°C° 0 mm 2 mps 732 mmHg 69%
    23:00 +9°C° 0 mm 2 mps 732 mmHg 72%

    24 March, Sunday

    Time Temperature Precipitation Wind Pressure Humidity
    00:00 +8°C° 0 mm 2 mps 732 mmHg 74%
    01:00 +8°C° 0 mm 2 mps 732 mmHg 76%
    02:00 +8°C° 0 mm 2 mps 732 mmHg 79%
    03:00 +8°C° 0 mm 2 mps 732 mmHg 80%
    04:00 +8°C° 0 mm 2 mps 731 mmHg 81%
    05:00 +7°C° 0 mm 2 mps 731 mmHg 82%
    06:00 +8°C° 0 mm 2 mps 731 mmHg 80%
    07:00 +10°C° 0 mm 1 mps 731 mmHg 77%
    08:00 +11°C° 0 mm 1 mps 731 mmHg 75%
    09:00 +13°C° 0 mm 1 mps 731 mmHg 68%
    10:00 +15°C° 0 mm 1 mps 731 mmHg 60%
    11:00 +18°C° 0 mm 1 mps 731 mmHg 53%
    12:00 +19°C° 0 mm 1 mps 731 mmHg 50%
    13:00 +19°C° 0 mm 1 mps 730 mmHg 47%
    14:00 +20°C° 0 mm 1 mps 730 mmHg 45%
    15:00 +20°C° 0 mm 1 mps 729 mmHg 45%
    16:00 +19°C° 0 mm 1 mps 729 mmHg 46%
    17:00 +19°C° 0 mm 1 mps 728 mmHg 47%
    18:00 +16°C° 0 mm 1 mps 728 mmHg 53%
    19:00 +14°C° 0 mm 2 mps 728 mmHg 59%
    20:00 +12°C° 0 mm 2 mps 728 mmHg 65%
    21:00 +12°C° 0 mm 2 mps 727 mmHg 66%
    22:00 +10°C° 0 mm 2 mps 727 mmHg 67%
    23:00 +10°C° 0 mm 2 mps 727 mmHg 68%
    Show more